Location: *
(43.9900°N, 3.4811°E)
Time: 10:13:02
(UTC+00:00)

CZ-4C R/B - Pass Details

Date: 25 August 2019
Orbit: 653 x 1349 km, 63.4° (Epoch: 20 October)

Event Time Altitude Azimuth Distance (km) Brightness Sun altitude
Exits shadow 21:43:12 36° 50° (NE) 1,275 3.1 -28.5°
Drops below altitude 10° 21:46:47 10° 40° (NE) 2,570 4.9 -28.8°
Sets 21:49:33 0° 39° (NE) 3,629 5.7 -29.1°
